Location: Chmeln�
(49.6483°N, 14.9871°E)
Time: 04:48:41
(UTC+00:00)

MetOp-B - Pass Details

Date: 18 September 2020
Orbit: 819 x 821 km, 98.7° (Epoch: 22 October)

Event Time Altitude Azimuth Distance (km) Brightness Sun altitude
Exits shadow 19:41:03 63° 144° (SE) 916 4.0 -24.3°
Maximum altitude 19:41:56 81° 73° (ENE) 837 4.0 -24.4°
Drops below altitude 10° 19:47:19 10° 347° (NNW) 2,428 7.2 -25.2°
Sets 19:49:40 0° 346° (NNW) 3,365 8.1 -25.5°
